Flag for U.S.A. Weather past 2 weeks in Irving, Texas, U.S.A.

80 °F

Scattered clouds.

Feels Like: 79 °F
Forecast: 57 / 79 °F
Wind: 5 mph from North

Location: Dallas / Fort Worth International Airport

Current Time: Oct 4, 2015 at 5:23:02 PM

Latest Report: Oct 4, 2015 at 4:53 PM

Visibility: 10 mi

Pressure: 29.95 "Hg

Humidity: 32%

Dew point: 48 °F

Location of IrvingLocation

Historic Weather in Irving — Graph


Irving temperature yesterday

Maximum temperature yesterday: 79 °F (at 3:53 PM)
Minimum temperature yesterday: 56 °F (at 5:53 AM)
Average temperature yesterday: 68 °F

Past Weeks' High & Low Weather Summary

High94 °F (Sep 21, 4:53 PM)85% (Oct 1, 6:53 AM)30.12 "Hg (Oct 1, 6:53 AM)
Low56 °F (Oct 3, 5:53 AM)19% (Sep 23, 4:53 PM)29.78 "Hg (Sep 28, 4:53 PM)
Average78 °F52%29.96 "Hg
* Reported Sep 19 3:53 PM — Oct 4 3:53 PM, Irving, Weather by CustomWeather, © 2015

Note: Actual official high and low records may vary slightly from our data, if they occured in-between our weather recording intervals... More about our weather records


Irving weather history for previous 24 hours

Time TempWeatherWind HumidityBarometerVisibility
3:53 PM
Sun, Oct 4
77 °FScattered clouds.3 mph36%29.95 "Hg10 mi
2:53 PM77 °FScattered clouds.5 mph39%29.96 "Hg10 mi
1:53 PM76 °FPassing clouds.3 mph40%30.00 "Hg10 mi
12:53 PM72 °FPassing clouds.No wind46%30.01 "Hg10 mi
11:53 AM70 °FPassing clouds.No wind49%30.04 "Hg10 mi
10:53 AM68 °FPassing clouds.6 mph53%30.06 "Hg10 mi
9:53 AM65 °FScattered clouds.6 mph59%30.05 "Hg10 mi
8:53 AM62 °FScattered clouds.6 mph67%30.04 "Hg10 mi
7:53 AM58 °FPassing clouds.3 mph75%30.03 "Hg10 mi
6:53 AM58 °FPassing clouds.7 mph72%30.00 "Hg10 mi
5:53 AM59 °FPassing clouds.8 mph69%29.98 "Hg10 mi
4:53 AM60 °FPassing clouds.8 mph67%29.94 "Hg10 mi
3:53 AM62 °FPassing clouds.8 mph62%29.92 "Hg10 mi
2:53 AM63 °FPassing clouds.6 mph60%29.92 "Hg10 mi
1:53 AM64 °FPassing clouds.6 mph58%29.91 "Hg10 mi
12:53 AM65 °FPassing clouds.8 mph56%29.92 "Hg10 mi
11:53 PM
Sat, Oct 3
65 °FPassing clouds.7 mph54%29.90 "Hg10 mi
10:53 PM67 °FPassing clouds.8 mph53%29.90 "Hg10 mi
9:53 PM70 °FPassing clouds.9 mph47%29.90 "Hg10 mi
8:53 PM71 °FPassing clouds.9 mph42%29.89 "Hg10 mi
7:53 PM73 °FPartly sunny.12 mph38%29.88 "Hg10 mi
6:53 PM75 °FPartly sunny.12 mph34%29.87 "Hg10 mi
5:53 PM79 °FScattered clouds.12 mph29%29.85 "Hg10 mi
Weather by CustomWeather, © 2015

See weather overviewHow to use our weather pages